AirNav   Pilot Hours Calculator
 
 1573 users online  

W96 New Kent County Airport
Quinton, Virginia, USA

GOING TO QUINTON?


FAA INFORMATION EFFECTIVE 26 JANUARY 2023

Location

FAA Identifier: W96
Lat/Long: 37-30-12.3460N 077-07-35.6100W
37-30.205767N 077-07.593500W
37.5034294,-77.1265583
(estimated)
Elevation: 120.7 ft. / 36.8 m (surveyed)
Variation: 10W (2005)
From city: 8 miles W of QUINTON, VA
Time zone: UTC -5 (UTC -4 during Daylight Saving Time)
Zip code: 23141

Airport Operations

Airport use: Open to the public
Activation date: 06/1938
Control tower: no
ARTCC: WASHINGTON CENTER
FSS: LEESBURG FLIGHT SERVICE STATION
NOTAMs facility: DCA (NOTAM-D service available)
Attendance: 0900-1700
Pattern altitude: 920.7 ft. MSL
Wind indicator: lighted
Segmented circle: yes
Lights: ACTVT REIL RWY 11 & 29; MIRL RWY 11/29 - CTAF.
Beacon: white-green (lighted land airport)
ROTG BCN NOT VISIBLE WHEN APPROACHING FM THE NORTH. Operates sunset to sunrise.

Airport Communications

CTAF/UNICOM: 122.8
WX AWOS-3: 119.875 (804-932-8863)
POTOMAC APPROACH: 126.4
POTOMAC DEPARTURE: 126.4
WX ASOS at RIC (9 nm W): PHONE 804-236-1091
WX AWOS-3 at FYJ (17 nm E): 132.825 (804-785-2307)
WX ASOS at OFP (19 nm NW): 119.025 (804-752-2902)
WX AWOS-3PT at FCI (20 nm W): 128.625 (804-271-8426)

Nearby radio navigation aids

VOR radial/distance  VOR name  Freq  Var
RICr099/9.2RICHMOND VORTAC114.1009W
HPWr003/10.5HOPEWELL VORTAC112.0006W
HCMr286/20.0HARCUM VORTAC108.8007W
FAKr099/33.4FLAT ROCK VORTAC113.3006W

 
NDB name  Hdg/Dist  Freq  Var  ID
WAKEFIELD000/31.827411WAKQ .- -.- --.-

Airport Services

Fuel available: 100LL
100LL:FUEL AVBL 24 HRS, CREDIT CARD REQUIRED WHEN UNATTENDED.
Parking: hangars and tiedowns
Airframe service: MINOR
Powerplant service: MINOR
Bottled oxygen: NONE
Bulk oxygen: NONE

Runway Information

Runway 11/29

Dimensions: 3602 x 75 ft. / 1098 x 23 m
Surface: asphalt, in good condition
Weight bearing capacity: 
Single wheel: 12.5
Runway edge lights: medium intensity
RUNWAY 11  RUNWAY 29
Latitude: 37-30.237100N37-30.174408N
Longitude: 077-07.963902W077-07.223118W
Elevation: 120.7 ft.107.5 ft.
Traffic pattern: leftleft
Runway heading: 106 magnetic, 096 true286 magnetic, 276 true
Markings: nonprecision, in fair conditionnonprecision, in fair condition
Visual slope indicator: 2-light PAPI on right (4.00 degrees glide path)2-light PAPI on left (4.00 degrees glide path)
Runway end identifier lights: yesyes
Touchdown point: yes, no lightsyes, no lights
Obstructions: 5 ft. road, 258 ft. from runway, 9 ft. both sides of centerline, 11:1 slope to clear
RWY 11 - ROADWAY +15 FT 260 FT FM RWY END.
19 ft. trees, 438 ft. from runway, 165 ft. right of centerline, 12:1 slope to clear

Airport Ownership and Management from official FAA records

Ownership: Publicly-owned
Owner: COUNTY OF NEW KENT
P. O. BOX 150, 12007 COURT HOUSE CIRCLE
NEW KENT, VA 23124
Phone 804-966-9683
Manager: DUANE GOSS
6901 TERMINAL RD
QUINTON, VA 23141-2427
Phone 804-932-3984

Airport Operational Statistics

Aircraft based on the field: 30
Single engine airplanes: 28
Multi engine airplanes: 1
Jet airplanes: 1
    
Aircraft operations: avg 55/day *
68% transient general aviation
25% local general aviation
7% air taxi
* for 12-month period ending 31 December 2021

Additional Remarks

DEER ON & INVOF ARPT.
FOR CD CTC POTOMAC APCH AT 866-640-4124.

Instrument Procedures

NOTE: All procedures below are presented as PDF files. If you need a reader for these files, you should download the free Adobe Reader.

NOT FOR NAVIGATION. Please procure official charts for flight.
FAA instrument procedures published for use from 26 January 2023 at 0901Z to 23 February 2023 at 0900z.

 
IAPs - Instrument Approach Procedures
RNAV (GPS) RWY 11   download
RNAV (GPS) RWY 29   download
VOR-A   download
NOTE: Special Take-Off Minimums/Departure Procedures apply   download (155KB)

Other nearby airports with instrument procedures:

KRIC - Richmond International Airport (9 nm W)
KFYJ - Middle Peninsula Regional Airport (17 nm E)
KOFP - Hanover County Municipal Airport (19 nm NW)
KFCI - Richmond Executive-Chesterfield County Airport (20 nm W)
KXSA - Tappahannock/Essex County Airport (24 nm NE)
 
Loc | Ops | Rwys | IFR | FBO | Links
Com | Nav | Svcs | Stats | Notes
Area around W96 (New Kent County Airport)
 
Road maps at: MapQuest Bing Google
 
Aerial photo
WARNING: Photo may not be current or correct
Aerial photo of W96 (New Kent County Airport)
Do you have a better or more recent aerial photo of New Kent County Airport that you would like to share? If so, please send us your photo.

 
Sectional chart

 
Airport distance calculator
Flying to New Kent County Airport? Find the distance to fly.

From to W96

Sunrise and sunset
Times for 27-Jan-2023
 Local
(UTC-5)
 Zulu
(UTC)
Morning civil twilight06:4911:49
Sunrise07:1712:17
Sunset17:2622:26
Evening civil twilight17:5422:54

Current date and time
Zulu (UTC)  27-Jan-2023 18:59:43
Local (UTC-5)  27-Jan-2023 13:59:43
 
METAR
KW96 271855Z AUTO 26005KT 10SM BKN060 07/M07 A3016 RMK AO1 T00681070
KRIC 
9nm W 
271854Z 28010G16KT 10SM SCT060 08/M07 A3015 RMK AO2 SLP217 T00831072
KFYJ 
17nm E 
271855Z AUTO 29009G15KT 10SM CLR 08/M06 A3017 RMK AO1 T00781064
KOFP 
19nm NW 
271854Z AUTO 25010KT 10SM FEW060 08/M07 A3017 RMK AO2 SLP215 T00781067
KFCI 
20nm W 
271756Z AUTO 25007G21KT 10SM BKN060 07/M07 A3018 RMK AO2 SLP231 60002 T00721072 10072 21028 58016
TAF
KRIC 
9nm W 
271734Z 2718/2818 28010KT P6SM BKN060 FM272200 22005KT P6SM FEW070 SCT250 FM281500 24010KT P6SM SCT250
NOTAMs
Click for the latest NOTAMs
NOTAMs are issued by the DoD/FAA and will open in a separate window not controlled by AirNav.

 

 
 

FBO, Fuel Providers, and Aircraft Ground Support

  
 Business Name 
 
 Contact 
 
 Services / Description 
 
Fuel Prices
 
Comments
  
 New Kent County Airport
UNICOM 122.80
804-932-3984
[web site]
[email]
Tie Downs, Enclosed Hangars and Open Bay Hangars available...Call for pricing.
NOTICE: There are no ultralight aircraft operations at the airport. The RIC FSDO has been notified of this correction.

More info about New Kent County Airport
independent
100LL
SS $6.49 
 Updated 13-Jan-2023
 
   1 read write
SS=Self service
Update Fuel Prices
 

Would you like to see your business listed on this page?

 If your business provides an interesting product or service to pilots, flight crews, aircraft, or users of the New Kent County Airport, you should consider listing it here.  To start the listing process, click on the button below
 
Add a business
 

Other Pages about New Kent County Airport

www.co.newkent.state.va.us/index.aspx?NID=177
www.flyvirginia.com/...
 
Update a link
 
Copyright © AirNav, LLC. All rights reserved. Privacy Policy  Contact